Torna al catalogo

CZ-6A DEB

AttivoSSO
NORAD 54466·DEBRIS·🇨🇳 China

Lanciato Nov 11, 2022 da Taiyuan Satellite Launch Center

Loading…

Prossimi Passaggi (prossime 24 ore)

TLE

AggiornatoSource: Space-Track

Epoca: Sep 14, 2026, 10:54 UTC

1 54466U 22151GS  26257.45457128  .00000811  00000-0  41983-3 0  9992
2 54466  98.8252 268.6596 0030179  49.7886 310.5923 14.17480652198037

Traccia CZ-6A DEB in tempo reale con AllMySat

Download on the App Store